Weather History for Rolla, MO

Change the Weather History Date:

Sunday, December 8, 2013

  Actual Average Record
Temperature  
Mean Temperature 22 °F 36 °F  
Max Temperature 26 °F 45 °F 77 °F (1991)
Min Temperature 17 °F 26 °F 3 °F (2006)
Degree Days  
Heating Degree Days 43 30  
Month to date heating degree days 253 226  
Since 1 July heating degree days 1303 1173  
Cooling Degree Days 0 0  
Month to date cooling degree days 0 0  
Year to date cooling degree days 1125 1246  
Moisture  
Dew Point 19 °F    
Average Humidity 89    
Maximum Humidity 100    
Minimum Humidity 77    
Precipitation  
Precipitation T in 0.10 in 1.08 in (1956)
Month to date precipitation 0.13 0.81  
Year to date precipitation 39.88 41.78  
Sea Level Pressure  
Sea Level Pressure 30.11 in    
Wind  
Wind Speed 8 mph (SSE)    
Max Wind Speed 15 mph    
Max Gust Speed 19 mph    
Visibility 5 miles    
Events Snow    
T = Trace of Precipitation, MM = Missing Value Source: NWS Daily Summary

Daily Weather History Graph

Daily Weather History Graph

Search for Another Location

Airport:

Trip Planner

Search our weather history database for the weather conditions in past years. The results will help you decide how hot, cold, wet, or windy it might be!

Date:

Astronomy

Dec. 08, 2013 Rise Set
Actual Time 7:11 AM CST 4:47 PM CST
Civil Twilight 6:41 AM CST 5:16 PM CST
Nautical Twilight 6:08 AM CST 5:49 PM CST
Astronomical Twilight 5:36 AM CST 6:21 PM CST
Moon 11:36 AM CST (12/8) 11:32 PM CST (12/8)
Length of Visible Light 10h 34m
Length of Day
9h 35m
Waxing Crescent, 40% of the Moon is Illuminated
Dec 8
Waxing Crescent
Dec 9
First Quarter
Dec 17
Full
Dec 25
Last Quarter
Jan 1
New

Hourly Weather History & Observations

Time (CST) Temp. Windchill Dew Point Humidity Pressure Visibility Wind Dir Wind Speed Gust Speed Precip Events Conditions
12:02 AM 17.1 °F 6.6 °F 10.9 °F 77% 30.35 in 4.0 mi ENE 8.1 mph - 0.00 in Snow Light Snow
12:53 AM 17.1 °F 2.5 °F 10.9 °F 77% 30.39 in 10.0 mi East 15.0 mph - 0.00 in   Overcast
1:53 AM 18.0 °F 6.1 °F 12.0 °F 78% 30.35 in 10.0 mi East 10.4 mph - N/A   Overcast
2:53 AM 18.0 °F 6.9 °F 12.0 °F 78% 30.32 in 10.0 mi East 9.2 mph - N/A   Overcast
3:53 AM 18.0 °F 4.8 °F 12.9 °F 81% 30.28 in 10.0 mi ENE 12.7 mph - N/A   Unknown
4:53 AM 18.0 °F 6.1 °F 12.9 °F 81% 30.25 in 10.0 mi ENE 10.4 mph - 0.00 in   Overcast
5:53 AM 18.0 °F 4.8 °F 12.9 °F 81% 30.23 in 10.0 mi ENE 12.7 mph - N/A   Overcast
6:53 AM 19.0 °F 8.2 °F 14.0 °F 81% 30.22 in 7.0 mi East 9.2 mph - N/A   Overcast
7:00 AM 18.0 °F 7.7 °F 14.0 °F 84% 30.16 in 7.0 mi East 8.1 mph - N/A   Overcast
7:33 AM 18.0 °F 6.1 °F 14.0 °F 84% 30.16 in 3.0 mi East 10.4 mph - N/A   Overcast
7:53 AM 18.0 °F 7.7 °F 15.1 °F 88% 30.21 in 4.0 mi East 8.1 mph - N/A   Overcast
8:08 AM 19.0 °F 7.5 °F 15.1 °F 85% 30.15 in 4.0 mi East 10.4 mph - N/A   Overcast
8:21 AM 19.0 °F 6.8 °F 15.1 °F 85% 30.14 in 3.0 mi East 11.5 mph - N/A   Overcast
8:53 AM 19.0 °F 7.5 °F 15.1 °F 85% 30.20 in 4.0 mi ESE 10.4 mph - N/A   Overcast
9:18 AM 19.9 °F 11.1 °F 16.0 °F 85% 30.15 in 4.0 mi ESE 6.9 mph - 0.00 in   Overcast
9:53 AM 19.9 °F 11.1 °F 16.0 °F 85% 30.19 in 7.0 mi SE 6.9 mph - 0.00 in   Overcast
10:30 AM 19.9 °F 10.1 °F 17.1 °F 89% 30.11 in 5.0 mi ESE 8.1 mph - 0.00 in   Overcast
10:50 AM 21.2 °F 12.6 °F 17.6 °F 86% 30.10 in 2.5 mi ESE 6.9 mph - 0.00 in   Overcast
10:51 AM 21.0 °F 13.4 °F 18.0 °F 88% 30.15 in 2.5 mi ESE 5.8 mph - 0.00 in   Overcast
11:24 AM 21.0 °F 13.4 °F 19.0 °F 92% 30.09 in 1.8 mi SSE 5.8 mph - N/A   Overcast
11:34 AM 21.0 °F 13.4 °F 19.9 °F 96% 30.09 in 2.0 mi South 5.8 mph - N/A   Overcast
11:43 AM 21.0 °F 13.4 °F 19.0 °F 92% 30.08 in 1.8 mi South 5.8 mph - N/A   Overcast
11:53 AM 21.9 °F 15.7 °F 19.9 °F 92% 30.12 in 1.5 mi South 4.6 mph - N/A   Overcast
12:16 PM 21.9 °F 14.5 °F 21.0 °F 96% 30.05 in 1.8 mi SSE 5.8 mph - N/A   Overcast
12:38 PM 21.9 °F 14.5 °F 19.9 °F 92% 30.03 in 2.5 mi South 5.8 mph - N/A   Overcast
12:45 PM 21.9 °F 14.5 °F 21.0 °F 96% 30.02 in 3.0 mi South 5.8 mph - N/A   Overcast
12:53 PM 23.0 °F 14.7 °F 21.0 °F 92% 30.06 in 2.5 mi South 6.9 mph - N/A   Overcast
1:16 PM 23.0 °F 17.0 °F 21.9 °F 96% 29.97 in 4.0 mi SSE 4.6 mph - N/A   Overcast
1:53 PM 23.0 °F 15.8 °F 21.0 °F 92% 30.03 in 8.0 mi SSW 5.8 mph - N/A   Overcast
2:53 PM 24.1 °F 17.0 °F 21.0 °F 88% 30.03 in 8.0 mi SSW 5.8 mph - N/A   Overcast
3:36 PM 24.1 °F 17.0 °F 21.9 °F 91% 29.97 in 1.8 mi South 5.8 mph - N/A   Overcast
3:53 PM 24.1 °F 17.0 °F 21.9 °F 91% 30.03 in 1.8 mi SW 5.8 mph - N/A   Overcast
4:00 PM 24.1 °F 16.0 °F 23.0 °F 96% 29.98 in 2.0 mi SW 6.9 mph - N/A   Overcast
4:17 PM 24.1 °F 16.0 °F 23.0 °F 96% 29.98 in 2.5 mi SW 6.9 mph - N/A   Overcast
4:29 PM 24.1 °F 16.0 °F 23.0 °F 96% 29.98 in 2.5 mi SSW 6.9 mph - N/A   Overcast
4:39 PM 24.1 °F 17.0 °F 23.0 °F 96% 29.98 in 3.0 mi SW 5.8 mph - N/A   Overcast
4:53 PM 24.1 °F 17.0 °F 23.0 °F 96% 30.03 in 4.0 mi SSW 5.8 mph - N/A   Overcast
5:43 PM 24.1 °F 16.0 °F 23.0 °F 96% 29.98 in 4.0 mi SSW 6.9 mph - 0.00 in   Overcast
5:53 PM 24.1 °F 16.0 °F 23.0 °F 96% 30.04 in 4.0 mi SSW 6.9 mph - 0.00 in   Overcast
6:06 PM 24.1 °F 15.2 °F 23.0 °F 96% 29.99 in 3.0 mi SSW 8.1 mph - 0.00 in Snow Light Snow
6:53 PM 24.1 °F 17.0 °F 23.0 °F 96% 30.06 in 7.0 mi SW 5.8 mph - 0.00 in   Overcast
7:53 PM 25.0 °F 16.3 °F 23.0 °F 92% 30.08 in 7.0 mi SW 8.1 mph - N/A   Overcast
8:53 PM 25.0 °F 15.5 °F 23.0 °F 92% 30.09 in 6.0 mi WSW 9.2 mph - N/A   Overcast
9:31 PM 25.0 °F 14.8 °F 24.1 °F 96% 30.05 in 4.0 mi WSW 10.4 mph - N/A   Overcast
9:53 PM 25.0 °F 15.5 °F 24.1 °F 96% 30.09 in 5.0 mi WSW 9.2 mph - N/A   Overcast
10:13 PM 25.0 °F 16.3 °F 24.1 °F 96% 30.06 in 4.0 mi SW 8.1 mph - N/A   Overcast
10:53 PM 25.0 °F 17.1 °F 24.1 °F 96% 30.11 in 5.0 mi WSW 6.9 mph - N/A   Overcast
11:03 PM 25.0 °F 16.3 °F 24.1 °F 96% 30.07 in 6.0 mi WSW 8.1 mph - N/A   Overcast
11:34 PM 26.1 °F 16.8 °F 24.1 °F 92% 30.07 in 6.0 mi WSW 9.2 mph - N/A   Overcast
11:53 PM 26.1 °F 17.6 °F 24.1 °F 92% 30.12 in 7.0 mi SW 8.1 mph - N/A   Overcast